Regional Weather Roundup
Issued by NWS Charleston, WV

Home | Current Version | Previous Version | Graphics & Text | Print | Product List | Glossary On
Versions: 1 2 3 4 5 6 7 8 9 10 11 12 13 14 15 16 17 18 19 20 21 22 23 24 25 26 27
000
ASUS41 KRLX 201210
RWRRLX
West Virginia Regional Weather Roundup
National Weather Service Charleston WV
800 AM EDT FRI APR 20 2018

Note: "fair" indicates few or no clouds below 12,000 feet with no
significant weather and/or obstructions to visibility.

WVZ003-201300-
Northern Panhandle of West Virginia

CITY           SKY/WX    TMP DP  RH WIND       PRES   REMARKS
WHEELING       FAIR      32  20  61 W6        30.37R
$$

WVZ009-201300-
Northwest West Virginia

CITY           SKY/WX    TMP DP  RH WIND       PRES   REMARKS
PARKERSBURG    FAIR      31  25  78 CALM      30.44R
$$

WVZ006-201300-
Western West Virginia

CITY           SKY/WX    TMP DP  RH WIND       PRES   REMARKS
HUNTINGTON     FAIR      36  28  73 CALM      30.42R
$$

WVZ015-201300-
West Central West Virginia

CITY           SKY/WX    TMP DP  RH WIND       PRES   REMARKS
CHARLESTON     FAIR      34  30  85 CALM      30.40R
$$

WVZ022-031-201300-
North Central West Virginia

CITY           SKY/WX    TMP DP  RH WIND       PRES   REMARKS
CLARKSBURG     FAIR      33  22  63 CALM      30.37R
MORGANTOWN     FAIR      31  23  72 CALM      30.37R
$$

WVZ025-035-042-045-201300-
Southern West Virginia

CITY           SKY/WX    TMP DP  RH WIND       PRES   REMARKS
BECKLEY        FAIR      33  18  53 N9        30.33R
LOGAN          FAIR      39  23  52 CALM      30.38R
BLUEFIELD      FAIR      32  25  75 CALM      30.33R
LEWISBURG      FAIR      35  14  42 N6        30.33R
$$

WVZ047-201300-
Northern Mountains of West Virginia

CITY           SKY/WX    TMP DP  RH WIND       PRES   REMARKS
ELKINS         FAIR      30  21  69 CALM      30.34R
$$

WVZ052-201300-
Eastern Panhandle of West Virginia

CITY           SKY/WX    TMP DP  RH WIND       PRES   REMARKS
MARTINSBURG    FAIR      38  20  48 NW14G23   30.28R
PETERSBURG     FAIR      35  22  59 CALM      30.33R
$$




USA.gov is the U.S. government's official web portal to all federal, state and local government web resources and services.